Regional Weather Roundup
Issued by NWS

Home | Current Version | Previous Version | Graphics & Text | Print | Product List | Glossary On
Versions: 1 2 3 4 5 6 7 8 9 10 11 12 13 14 15 16 17 18 19 20 21 22 23 24 25 26 27 28 29 30 31 32 33 34 35 36 37 38 39 40 41 42 43 44 45 46 47 48 49
000
ASUS45 KSLC 120510
RWRUT

UTAH REGIONAL WEATHER ROUNDUP
NATIONAL WEATHER SERVICE SALT LAKE CITY UT
1000 PM MST THU FEB 11 2016

UTZ001>011-023>025-120600-

NORTHERN UTAH

CITY           SKY/WX    TMP DP  RH WIND       PRES   REMARKS
BRIGHAM CITY   CLOUDY    27  24  89 N3        30.43S
HILL AFB       FOG       26  24  90 NW3       30.40R VSB 1
LOGAN          CLOUDY    22  22 100 NW6       30.42R FOG     WCI  14
OGDEN          CLOUDY    26  26 100 W6        30.41R FOG     WCI  19
PROVO AIRPORT  CLOUDY    16  12  86 CALM      30.41F VSB<1/4
SALT LAKE CITY CLOUDY    29  27  92 S3        30.40F FOG
VERNAL         CLOUDY    19  16  88 CALM      30.42F FOG
WENDOVER       CLOUDY    30  27  86 CALM      30.43S
HEBER CITY     MOCLDY    19  12  73 E3        30.39S
WEST JORDAN    CLOUDY    28  28 100 CALM      30.40F

$$

UTZ012>022-026-027-120600-

SOUTHERN/CENTRAL UTAH

CITY           SKY/WX    TMP DP  RH WIND       PRES   REMARKS
BLANDING       CLEAR     32  25  74 N3        30.44S
BRYCE CANYON   PTCLDY    25  16  68 W8        30.44S WCI  16
CEDAR CITY     MOCLDY    26  21  81 CALM      30.38S
DELTA          CLOUDY    18  17  95 S5        30.42F VSB 1/4 WCI  11
HANKSVILLE     MOCLDY    32  30  93 CALM      30.43S
MILFORD        FOG       13  11  92 CALM      30.41S VSB 3/4
MOAB/CYNLANDS  PTCLDY    31  27  85 W3        30.39S
PRICE          PTCLDY    29  22  75 NE6       30.38F WCI  23
ST GEORGE      MOCLDY    48  27  43 CALM      30.30R
KANAB          PTCLDY    37  32  81 NE7       30.38R WCI  32

$$

REGIONAL REPORTS     COLORADO/ARIZONA

CITY           SKY/WX    TMP DP  RH WIND       PRES   REMARKS
CRAIG, CO      CLOUDY    18  14  84 CALM      30.41R
GRAND JUNCTION CLOUDY    27  25  92 E3        30.41R
RIFLE          CLOUDY    27  17  66 E5        30.42R WCI  22
MONTROSE       CLOUDY    27  21  78 SE7       30.44R WCI  19
CORTEZ         CLOUDY    27  22  81 NE6       30.39R WCI  20
PAGE, AZ       MOCLDY    43  29  57 CALM      30.36R
GRAND CANYON   PTCLDY    28  20  71 CALM      30.41R
KINGMAN        CLEAR     44  26  49 SE6       30.27R
FLAGSTAFF      MOCLDY    28  19  69 CALM      30.42R

$$

REGIONAL REPORTS    NEVADA/IDAHO/WYOMING

CITY           SKY/WX    TMP DP  RH WIND       PRES   REMARKS
LAS VEGAS, NV  CLEAR     58  24  27 S3        30.19R
ELY            MOCLDY    29  21  72 S9        30.38S WCI  20
ELKO           MOCLDY    20  16  84 CALM      30.37S
POCATELLO, ID  CLOUDY    30  23  75 E12       30.37R WCI  20
BURLEY         CLEAR     32  28  85 NE8       30.31S WCI  25
EVANSTON, WY   CLOUDY    37  17  44 S8        30.38F WCI  31
ROCK SPRINGS   CLOUDY    37  20  50 SW16      30.36F WCI  28
KEMMERER       CLOUDY    32  18  55 NW8       30.38F WCI  25

$$



USA.gov is the U.S. government's official web portal to all federal, state and local government web resources and services.